FW7847 Weather Reports


Display with metric or nautical units.
time (UTC)temp
F
wind
direction
speed
MPH
gust
MPH
rain 1hr
in
rain 24hr
in
rain mn
in
humidity
%
barometer
mb
20260510225456 57 295 7.0 10.0 0.00 0.00 0.00 38 1020.1
20260510224951 57 296 7.0 10.0 0.00 0.00 0.00 38 1020.1
20260510224447 57 293 14.0 17.0 0.00 0.00 0.00 38 1020.1
20260510223944 57 265 2.0 14.0 0.00 0.00 0.00 38 1019.9
20260510223442 57 276 4.0 12.0 0.00 0.00 0.00 39 1020.0
20260510222938 57 237 5.0 14.0 0.00 0.00 0.00 38 1020.2
20260510222437 57 280 5.0 17.0 0.00 0.00 0.00 37 1019.9
20260510221932 59 276 11.0 15.0 0.00 0.00 0.00 35 1019.9
20260510221428 59 268 3.0 10.0 0.00 0.00 0.00 37 1020.1
20260510220925 58 266 5.0 9.0 0.00 0.00 0.00 35 1020.0
20260510220421 57 249 5.0 17.0 0.00 0.00 0.00 36 1019.9
20260510215917 57 275 5.0 9.0 0.00 0.00 0.00 37 1019.9
20260510215415 58 259 7.0 12.0 0.00 0.00 0.00 36 1019.8
20260510214913 58 40 7.0 9.0 0.00 0.00 0.00 36 1019.6
20260510214409 59 330 9.0 14.0 0.00 0.00 0.00 35 1019.7
20260510213907 58 238 11.0 14.0 0.00 0.00 0.00 37 1019.6
20260510213403 58 267 5.0 10.0 0.00 0.00 0.00 37 1019.5
20260510212859 58 316 9.0 15.0 0.00 0.00 0.00 36 1019.1
20260510212356 60 257 12.0 15.0 0.00 0.00 0.00 35 1019.5
20260510211853 59 246 9.0 15.0 0.00 0.00 0.00 35 1019.0
20260510211350 60 15 7.0 10.0 0.00 0.00 0.00 34 1019.2
20260510210845 59 240 4.0 7.0 0.00 0.00 0.00 36 1019.3
20260510210340 59 295 12.0 15.0 0.00 0.00 0.00 34 1019.3
20260510205839 59 265 7.0 26.0 0.00 0.00 0.00 34 1019.1
20260510205335 57 116 3.0 17.0 0.00 0.00 0.00 37 1019.0
20260510204831 60 229 3.0 9.0 0.00 0.00 0.00 34 1019.3
20260510204328 60 229 5.0 9.0 0.00 0.00 0.00 36 1019.3
20260510203824 58 234 5.0 10.0 0.00 0.00 0.00 34 1019.2
20260510203322 58 254 7.0 10.0 0.00 0.00 0.00 36 1019.3
20260510202822 58 242 8.0 15.0 0.00 0.00 0.00 36 1019.0
20260510202318 59 258 8.0 21.0 0.00 0.00 0.00 36 1019.3
20260510201815 57 232 3.0 9.0 0.00 0.00 0.00 36 1019.3
20260510201312 57 257 7.0 9.0 0.00 0.00 0.00 35 1019.6
20260510200809 59 326 14.0 17.0 0.00 0.00 0.00 34 1019.5
20260510200306 57 338 9.0 17.0 0.00 0.00 0.00 35 1019.7
20260510195802 57 258 0.0 10.0 0.00 0.00 0.00 35 1019.6
20260510195259 57 250 6.0 19.0 0.00 0.00 0.00 35 1019.9
20260510194759 58 239 4.0 7.0 0.00 0.00 0.00 36 1019.7
20260510194256 57 240 8.0 12.0 0.00 0.00 0.00 35 1019.8
20260510193751 56 278 4.0 15.0 0.00 0.00 0.00 35 1019.8
20260510193246 57 244 4.0 17.0 0.00 0.00 0.00 35 1019.8
20260510192742 58 289 7.0 10.0 0.00 0.00 0.00 33 1019.7
20260510192238 57 227 7.0 10.0 0.00 0.00 0.00 35 1019.9
20260510191734 57 252 3.0 7.0 0.00 0.00 0.00 35 1019.7
20260510191230 57 227 11.0 15.0 0.00 0.00 0.00 34 1020.1
20260510190728 58 229 3.0 17.0 0.00 0.00 0.00 35 1020.0
20260510190225 58 276 7.0 19.0 0.00 0.00 0.00 34 1020.0
20260510185722 58 4 11.0 17.0 0.00 0.00 0.00 33 1020.0
20260510185220 57 287 7.0 17.0 0.00 0.00 0.00 38 1019.9
20260510184716 55 290 12.0 15.0 0.00 0.00 0.00 37 1020.0
20260510184213 57 326 6.0 17.0 0.00 0.00 0.00 35 1019.8
20260510183708 58 325 8.0 10.0 0.00 0.00 0.00 34 1019.7
20260510183203 57 245 13.0 17.0 0.00 0.00 0.00 34 1019.6
20260510182659 58 278 9.0 12.0 0.00 0.00 0.00 35 1019.6
20260510182155 56 299 6.0 15.0 0.00 0.00 0.00 35 1019.5
20260510181653 57 217 3.0 14.0 0.00 0.00 0.00 37 1019.7
20260510181149 56 265 14.0 22.0 0.00 0.00 0.00 33 1019.7
20260510180645 57 275 2.0 7.0 0.00 0.00 0.00 35 1019.6
20260510180143 56 305 4.0 9.0 0.00 0.00 0.00 35 1019.5
20260510175639 57 321 10.0 14.0 0.00 0.00 0.00 36 1019.5
20260510175134 57 4 9.0 19.0 0.00 0.00 0.00 34 1019.6
20260510174632 56 231 7.0 15.0 0.00 0.00 0.00 35 1019.2
20260510174130 55 234 2.0 5.0 0.00 0.00 0.00 36 1019.2
20260510173625 55 245 2.0 12.0 0.00 0.00 0.00 36 1019.2
20260510173122 55 336 15.0 17.0 0.00 0.00 0.00 37 1019.3
20260510172617 55 355 11.0 19.0 0.00 0.00 0.00 37 1019.3
20260510172114 54 245 6.0 14.0 0.00 0.00 0.00 35 1019.5
20260510171610 56 269 7.0 10.0 0.00 0.00 0.00 36 1019.7
20260510171108 55 243 3.0 5.0 0.00 0.00 0.00 36 1019.7
20260510170604 55 249 3.0 12.0 0.00 0.00 0.00 38 1019.7
20260510170101 54 319 5.0 15.0 0.00 0.00 0.00 36 1019.5
20260510165556 55 217 4.0 17.0 0.00 0.00 0.00 35 1019.9
20260510165053 55 237 8.0 22.0 0.00 0.00 0.00 35 1019.9
20260510164550 55 260 10.0 14.0 0.00 0.00 0.00 35 1020.0
20260510164047 55 325 6.0 7.0 0.00 0.00 0.00 39 1019.5
20260510163542 55 276 7.0 12.0 0.00 0.00 0.00 39 1019.6
20260510163039 56 234 2.0 3.0 0.00 0.00 0.00 40 1019.6
20260510162533 54 236 1.0 10.0 0.00 0.00 0.00 39 1019.5
20260510162031 53 300 9.0 19.0 0.00 0.00 0.00 39 1019.6
20260510161526 54 264 5.0 14.0 0.00 0.00 0.00 37 1019.6
20260510161023 54 302 14.0 19.0 0.00 0.00 0.00 37 1019.3
20260510160520 53 230 7.0 14.0 0.00 0.00 0.00 39 1019.6
20260510160020 53 244 4.0 5.0 0.00 0.00 0.00 40 1019.6
20260510155516 54 253 7.0 14.0 0.00 0.00 0.00 39 1019.5
20260510155007 52 317 11.0 14.0 0.00 0.00 0.00 41 1019.6
20260510154503 54 268 10.0 12.0 0.00 0.00 0.00 39 1019.5
20260510154002 54 304 10.0 12.0 0.00 0.00 0.00 38 1019.3
20260510153458 53 299 11.0 15.0 0.00 0.00 0.00 40 1019.3
20260510152955 52 281 1.0 10.0 0.00 0.00 0.00 42 1019.2
20260510152452 52 324 4.0 9.0 0.00 0.00 0.00 40 1019.3
20260510151949 52 296 7.0 17.0 0.00 0.00 0.00 40 1018.9
20260510151446 53 232 2.0 9.0 0.00 0.00 0.00 41 1019.2
20260510150942 52 215 1.0 5.0 0.00 0.00 0.00 44 1018.9
20260510150438 52 251 16.0 19.0 0.00 0.00 0.00 42 1018.9
20260510145934 53 280 10.0 12.0 0.00 0.00 0.00 42 1018.9
20260510145431 52 231 7.0 10.0 0.00 0.00 0.00 44 1018.7
20260510144927 52 294 5.0 9.0 0.00 0.00 0.00 46 1018.8
20260510144424 52 254 12.0 17.0 0.00 0.00 0.00 44 1018.8
20260510143919 51 12 6.0 12.0 0.00 0.00 0.00 45 1018.6
20260510143415 51 255 7.0 12.0 0.00 0.00 0.00 47 1018.6
20260510142912 50 308 13.0 17.0 0.00 0.00 0.00 47 1018.5
20260510142409 51 317 8.0 12.0 0.00 0.00 0.00 46 1018.5
20260510141906 51 297 8.0 12.0 0.00 0.00 0.00 47 1018.5
20260510141403 51 297 4.0 9.0 0.00 0.00 0.00 48 1018.2
20260510140859 51 258 5.0 10.0 0.00 0.00 0.00 48 1018.5
20260510140356 52 224 5.0 10.0 0.00 0.00 0.00 50 1018.4
20260510135855 50 257 1.0 5.0 0.00 0.00 0.00 51 1018.3
20260510135351 49 246 6.0 10.0 0.00 0.00 0.00 52 1018.2
20260510134849 49 301 8.0 10.0 0.00 0.00 0.00 50 1018.3
20260510134345 50 256 6.0 10.0 0.00 0.00 0.00 51 1018.5
20260510133841 49 230 1.0 7.0 0.00 0.00 0.00 49 1018.4
20260510133338 49 236 4.0 15.0 0.00 0.00 0.00 50 1018.3
20260510132833 48 256 7.0 12.0 0.00 0.00 0.00 51 1018.3
20260510132332 50 252 3.0 14.0 0.00 0.00 0.00 49 1018.3
20260510131828 48 235 2.0 12.0 0.00 0.00 0.00 51 1018.3
20260510131326 48 249 4.0 12.0 0.00 0.00 0.00 50 1018.1
20260510130822 48 291 12.0 14.0 0.00 0.00 0.00 49 1018.2
20260510130319 49 232 5.0 12.0 0.00 0.00 0.00 50 1018.1
20260510125816 48 252 4.0 7.0 0.00 0.00 0.00 53 1018.0
20260510125312 47 291 8.0 15.0 0.00 0.00 0.00 52 1018.1
20260510124809 47 294 6.0 14.0 0.00 0.00 0.00 52 1018.0
20260510124306 47 237 3.0 5.0 0.00 0.00 0.00 53 1018.0
20260510123801 46 307 3.0 10.0 0.00 0.00 0.00 55 1017.9
20260510123257 46 45 2.0 5.0 0.00 0.00 0.00 54 1017.9
20260510122753 46 327 2.0 10.0 0.00 0.00 0.00 53 1017.7
20260510122250 46 273 6.0 9.0 0.00 0.00 0.00 54 1017.7
20260510121746 47 355 3.0 7.0 0.00 0.00 0.00 54 1017.6
20260510121244 46 249 8.0 10.0 0.00 0.00 0.00 56 1017.6
20260510120741 46 138 0.0 3.0 0.00 0.00 0.00 58 1017.5
20260510120238 45 311 6.0 12.0 0.00 0.00 0.00 60 1017.5
20260510115733 45 193 1.0 7.0 0.00 0.00 0.00 63 1017.4
20260510115232 44 236 3.0 9.0 0.00 0.00 0.00 63 1017.3
20260510114727 44 235 1.0 3.0 0.00 0.00 0.00 65 1017.1
20260510114224 43 203 0.0 3.0 0.00 0.00 0.00 66 1017.2
20260510113719 41 275 1.0 3.0 0.00 0.00 0.00 70 1017.4
20260510113216 40 224 1.0 2.0 0.00 0.00 0.00 74 1017.2
20260510112712 39 233 1.0 2.0 0.00 0.00 0.00 73 1017.1
20260510112210 38 231 0.0 0.0 0.00 0.00 0.00 76 1017.0
20260510111705 38 234 0.0 0.0 0.00 0.00 0.00 77 1017.0
20260510111203 37 237 0.0 2.0 0.00 0.00 0.00 79 1016.9
20260510110656 36 234 0.0 0.0 0.00 0.00 0.00 80 1016.7
20260510110155 36 233 0.0 0.0 0.00 0.00 0.00 81 1016.8
20260510105649 36 234 0.0 0.0 0.00 0.00 0.00 82 1016.9
20260510105144 36 233 0.0 0.0 0.00 0.00 0.00 81 1016.6
20260510104641 35 233 0.0 0.0 0.00 0.00 0.00 78 1016.4
20260510104138 35 233 0.0 0.0 0.00 0.00 0.00 79 1016.3
20260510103635 35 233 0.0 0.0 0.00 0.00 0.00 78 1016.5
20260510103131 36 233 0.0 0.0 0.00 0.00 0.00 78 1016.5
20260510102626 36 234 0.0 0.0 0.00 0.00 0.00 78 1016.3
20260510102122 35 234 0.0 0.0 0.00 0.00 0.00 79 1016.4
20260510101620 36 231 0.0 0.0 0.00 0.00 0.00 78 1016.4
20260510101118 36 233 0.0 0.0 0.00 0.00 0.00 78 1016.0
20260510100614 37 233 0.0 0.0 0.00 0.00 0.00 76 1016.4
20260510100112 37 233 0.0 0.0 0.00 0.00 0.00 75 1016.3
20260510095607 37 234 0.0 2.0 0.00 0.00 0.00 75 1016.0
20260510095102 38 233 0.0 0.0 0.00 0.00 0.00 78 1016.0
20260510094601 38 234 0.0 0.0 0.00 0.00 0.00 77 1015.9
20260510094057 39 234 0.0 2.0 0.00 0.00 0.00 73 1015.6
20260510093553 39 235 0.0 0.0 0.00 0.00 0.00 73 1015.6
20260510093050 39 234 0.0 0.0 0.00 0.00 0.00 73 1015.6
20260510092547 39 234 0.0 0.0 0.00 0.00 0.00 72 1015.6
20260510092046 40 234 0.0 0.0 0.00 0.00 0.00 72 1015.4
20260510091543 40 243 0.0 0.0 0.00 0.00 0.00 72 1015.4
20260510091039 40 234 0.0 0.0 0.00 0.00 0.00 72 1015.3
20260510090537 41 229 0.0 0.0 0.00 0.00 0.00 70 1015.0
20260510090032 41 236 0.0 2.0 0.00 0.00 0.00 70 1015.1
20260510085533 42 265 2.0 3.0 0.00 0.00 0.00 69 1015.2
20260510085029 42 235 1.0 2.0 0.00 0.00 0.00 69 1015.2
20260510084526 42 237 0.0 5.0 0.00 0.00 0.00 69 1014.8
20260510084023 43 236 4.0 5.0 0.00 0.00 0.00 68 1015.0
20260510083519 43 244 0.0 3.0 0.00 0.00 0.00 68 1014.8
20260510083015 43 245 3.0 5.0 0.00 0.00 0.00 67 1014.6
20260510082513 43 252 2.0 3.0 0.00 0.00 0.00 68 1014.4
20260510082013 44 243 3.0 5.0 0.00 0.00 0.00 67 1014.4
20260510081508 44 285 9.0 12.0 0.00 0.00 0.00 67 1014.4
20260510081005 44 235 2.0 5.0 0.00 0.00 0.00 67 1014.3
20260510080503 44 287 2.0 5.0 0.00 0.00 0.00 68 1014.1
20260510080000 44 258 3.0 5.0 0.00 0.00 0.00 68 1014.2
20260510075457 44 239 2.0 5.0 0.00 0.00 0.00 67 1014.1
20260510074954 44 226 0.0 7.0 0.00 0.00 0.00 66 1013.8
20260510074452 45 245 3.0 7.0 0.00 0.00 0.00 66 1013.7
20260510073947 45 261 3.0 9.0 0.00 0.00 0.00 66 1013.7
20260510073443 45 236 1.0 3.0 0.00 0.00 0.00 66 1013.5
20260510072940 45 240 3.0 7.0 0.00 0.00 0.00 66 1013.6
20260510072437 45 238 2.0 3.0 0.00 0.00 0.00 66 1013.3
20260510071932 45 276 6.0 7.0 0.00 0.00 0.00 66 1013.2
20260510071429 45 287 3.0 5.0 0.00 0.00 0.00 67 1013.3
20260510070927 45 216 3.0 5.0 0.00 0.00 0.00 67 1013.2
20260510070424 45 235 2.0 3.0 0.00 0.00 0.00 67 1013.2
20260510065920 45 237 3.0 5.0 0.00 0.00 0.00 68 1013.4
20260510065416 46 241 2.0 5.0 0.00 0.00 0.00 67 1013.3
20260510064913 46 224 1.0 2.0 0.00 0.00 0.00 67 1013.0
20260510064411 47 241 1.0 3.0 0.00 0.00 0.00 65 1013.0
20260510063907 47 305 2.0 3.0 0.00 0.00 0.00 66 1012.8
20260510063403 47 213 2.0 5.0 0.00 0.00 0.00 65 1013.1
20260510062901 48 243 4.0 5.0 0.00 0.00 0.00 65 1013.0
20260510062355 48 272 3.0 5.0 0.00 0.00 0.00 65 1012.7
20260510061851 48 292 3.0 9.0 0.00 0.00 0.00 64 1012.6
20260510061348 48 264 4.0 7.0 0.00 0.00 0.00 64 1012.8
20260510060844 48 226 1.0 5.0 0.00 0.00 0.00 63 1012.4
20260510060341 49 247 3.0 5.0 0.00 0.00 0.00 63 1012.4
20260510055838 49 211 1.0 3.0 0.00 0.00 0.00 63 1012.3
20260510055337 49 232 1.0 10.0 0.00 0.00 0.00 63 1012.2
20260510054836 49 142 0.0 5.0 0.00 0.00 0.00 63 1012.4
20260510054332 50 206 0.0 7.0 0.00 0.00 0.00 64 1012.1
20260510053827 50 250 2.0 7.0 0.00 0.00 0.00 64 1011.8
20260510053323 49 325 2.0 9.0 0.00 0.00 0.00 65 1011.9
20260510052819 49 89 3.0 5.0 0.00 0.00 0.00 67 1011.8
20260510052315 50 246 2.0 3.0 0.00 0.00 0.00 64 1011.9
20260510051811 50 223 1.0 3.0 0.00 0.00 0.00 66 1011.8
20260510051308 50 231 0.0 2.0 0.00 0.00 0.00 67 1011.6
20260510050806 49 221 0.0 2.0 0.00 0.00 0.00 69 1011.4
20260510050303 49 214 3.0 3.0 0.00 0.00 0.00 68 1011.6
20260510045759 49 236 1.0 2.0 0.00 0.00 0.00 69 1011.4
20260510045255 50 235 0.0 2.0 0.00 0.00 0.00 67 1011.4
20260510044754 50 231 2.0 3.0 0.00 0.00 0.00 68 1011.4
20260510044250 49 233 0.0 3.0 0.00 0.00 0.00 71 1011.3
20260510043746 49 264 2.0 2.0 0.00 0.00 0.00 69 1011.1
20260510043243 50 229 0.0 3.0 0.00 0.00 0.00 70 1010.9
20260510042740 51 235 0.0 0.0 0.00 0.00 0.00 65 1010.9
20260510042236 51 233 0.0 3.0 0.00 0.00 0.00 64 1011.0
20260510041733 52 231 0.0 5.0 0.00 0.00 0.00 64 1010.9
20260510041230 52 237 0.0 3.0 0.00 0.00 0.00 62 1010.8
20260510040727 53 236 4.0 7.0 0.00 0.00 0.00 60 1010.8
20260510040224 53 270 7.0 9.0 0.00 0.00 0.00 62 1010.5
20260510035719 53 236 3.0 5.0 0.00 0.02 0.02 61 1010.5
20260510035215 53 245 3.0 5.0 0.00 0.02 0.02 59 1010.4
20260510034711 53 235 1.0 3.0 0.00 0.02 0.02 60 1010.5
20260510034209 53 236 1.0 2.0 0.00 0.02 0.02 60 1010.3
20260510033704 53 231 3.0 3.0 0.00 0.02 0.02 60 1010.3
20260510033203 53 228 0.0 0.0 0.00 0.02 0.02 61 1010.3
20260510032659 54 236 0.0 2.0 0.00 0.02 0.02 60 1010.1
20260510032154 54 235 1.0 3.0 0.00 0.02 0.02 59 1010.2
20260510031649 54 331 3.0 5.0 0.00 0.02 0.02 59 1010.0
20260510031146 55 267 2.0 3.0 0.00 0.02 0.02 58 1010.2
20260510030641 55 272 5.0 5.0 0.00 0.02 0.02 57 1010.0
20260510030138 55 237 3.0 9.0 0.00 0.02 0.02 56 1009.9
20260510025635 55 330 5.0 7.0 0.00 0.02 0.02 56 1009.8
20260510025132 56 300 4.0 7.0 0.00 0.02 0.02 56 1009.8
20260510024629 56 236 2.0 3.0 0.00 0.02 0.02 57 1009.7
20260510024126 56 262 5.0 9.0 0.00 0.02 0.02 54 1009.7
20260510023622 56 233 0.0 2.0 0.00 0.02 0.02 54 1009.8
20260510023120 57 280 3.0 9.0 0.00 0.02 0.02 54 1009.4
20260510022619 57 280 6.0 10.0 0.00 0.02 0.02 53 1009.3
20260510022114 57 241 2.0 9.0 0.00 0.02 0.02 53 1009.3
20260510021610 57 333 5.0 10.0 0.00 0.02 0.02 52 1009.1
20260510021109 58 267 4.0 7.0 0.00 0.02 0.02 51 1008.9
20260510020608 58 287 5.0 7.0 0.00 0.02 0.02 51 1008.8
20260510020103 58 242 4.0 5.0 0.00 0.02 0.02 50 1008.6
20260510015600 59 242 5.0 14.0 0.00 0.02 0.02 49 1008.4
20260510015056 59 263 5.0 12.0 0.00 0.02 0.02 49 1008.4
20260510014552 60 245 3.0 7.0 0.00 0.02 0.02 50 1008.2
20260510014050 60 277 8.0 12.0 0.00 0.02 0.02 49 1007.9
20260510013550 61 297 11.0 19.0 0.00 0.02 0.02 49 1007.8
20260510013046 61 286 3.0 9.0 0.00 0.02 0.02 51 1007.3
20260510012539 61 346 6.0 12.0 0.00 0.02 0.02 52 1007.3
20260510012037 61 242 2.0 3.0 0.00 0.02 0.02 54 1007.1
20260510011536 61 241 2.0 9.0 0.00 0.02 0.02 53 1007.0
20260510011032 62 238 1.0 7.0 0.00 0.02 0.02 53 1007.0
20260510010529 61 261 5.0 9.0 0.00 0.02 0.02 54 1006.7
20260510010026 61 268 3.0 5.0 0.00 0.02 0.02 54 1006.5
20260510005521 61 234 0.0 3.0 0.00 0.02 0.02 55 1006.4
20260510005020 61 246 2.0 3.0 0.00 0.02 0.02 54 1006.2
20260510004517 62 236 0.0 3.0 0.00 0.02 0.02 53 1006.1
20260510004015 62 241 2.0 3.0 0.00 0.02 0.02 52 1005.9
20260510003511 63 255 3.0 7.0 0.00 0.02 0.02 52 1005.9
20260510003006 63 287 5.0 9.0 0.00 0.02 0.02 51 1005.8
20260510002502 63 215 0.0 3.0 0.00 0.02 0.02 51 1005.6
20260510001959 63 251 3.0 5.0 0.00 0.02 0.02 51 1005.7
20260510001457 63 255 3.0 9.0 0.00 0.02 0.02 50 1005.5
20260510000954 64 261 3.0 7.0 0.00 0.02 0.02 49 1005.6
20260510000450 64 245 3.0 7.0 0.00 0.02 0.02 50 1005.4
20260509235947 64 289 6.0 12.0 0.00 0.02 0.02 49 1005.3
20260509235443 64 228 2.0 10.0 0.00 0.02 0.02 48 1005.4
20260509234940 65 248 1.0 3.0 0.00 0.02 0.02 48 1005.4
20260509234437 65 278 9.0 12.0 0.00 0.02 0.02 47 1005.2
20260509233935 65 251 4.0 7.0 0.00 0.02 0.02 47 1005.2
20260509233432 64 278 3.0 7.0 0.00 0.02 0.02 47 1005.2
20260509232928 65 235 2.0 12.0 0.00 0.02 0.02 47 1005.2
20260509232426 66 198 5.0 15.0 0.00 0.02 0.02 46 1005.0
20260509231921 66 258 2.0 15.0 0.00 0.02 0.02 45 1005.1
20260509231418 66 279 11.0 22.0 0.00 0.02 0.02 45 1005.0
20260509230916 66 280 7.0 10.0 0.00 0.02 0.02 46 1005.1
20260509230413 66 249 7.0 12.0 0.00 0.02 0.02 45 1005.1
20260509225908 66 202 0.0 10.0 0.00 0.02 0.02 45 1004.9